Terug naar catalogus

STARLINK-33953

ActiefCommunicatieVLEO
NORAD 64028·PAYLOAD·🇺🇸 United States

Gelanceerd May 16, 2025 vanaf Vandenberg Space Force Base

Loading…

Volgende Passages (komende 24 uur)

TLE

VersSource: CelesTrak SupGP

Epoch: Sep 14, 2026, 20:37 UTC

1 64028C 25102G   26257.85951389 -.00022643  00000+0 -78776-3 0  2573
2 64028  70.0008 355.9269 0003354 275.3622 209.5685 15.29586920    11

Volg STARLINK-33953 in realtime met AllMySat

Download on the App Store